SVYATOBOR 1 (RS60S)

Last updated on Sun Aug 09 2026 00:03:16 GMT+0000 (Coordinated Universal Time)

1 57187U 23091X 26220.61325587 .00004486 00000+0 16989-3 0 9999 2 57187 97.5056 284.7391 0007448 265.0065 95.0324 15.27419044172317
UTC large
Height (km)
Speed (km/s)
/
Latitude / Longitude
Inclination (degrees)
Orbital Period (minutes)
Azimuth
Elevation
Range (km)
Doppler Factor

Next 0 passes for location: London (51.5072 / 0.1276)

No passes found over London.
SVYATOBOR 1 (RS60S)